Weather History for ZYTX - October, 2012

Change the Weather History Date:

Monday, October 8, 2012

  Actual Average Record
Temperature  
Mean Temperature 62 °F -  
Max Temperature 75 °F 56 °F - (-1)
Min Temperature 48 °F 35 °F - (-1)
Degree Days  
Heating Degree Days 4    
Growing Degree Days 12 (Base 50)    
Moisture  
Dew Point 42 °F    
Average Humidity 53    
Maximum Humidity 82    
Minimum Humidity 24    
Precipitation  
Precipitation 0.00 in 0.05 in - ()
Sea Level Pressure  
Sea Level Pressure 30.10 in    
Wind  
Wind Speed 7 mph ()    
Max Wind Speed 16 mph    
Max Gust Speed -    
Averages and records for this station are not official NWS values.
T = Trace of Precipitation, MM = Missing Value Source: Averaged Metar Reports

Daily Weather History Graph

Daily Weather History Graph

Search for Another Location

Airport or City:

Trip Planner

Search our weather history database for the weather conditions in past years. The results will help you decide how hot, cold, wet, or windy it might be!

Date:

Astronomy

Oct. 08, 2012 Rise Set
Actual Time 5:50 AM CST 5:16 PM CST
Civil Twilight 5:22 AM CST 5:43 PM CST
Nautical Twilight 4:50 AM CST 6:16 PM CST
Astronomical Twilight 4:18 AM CST 6:48 PM CST
Moon 10:48 PM CST (10/8) 12:46 PM CST (10/8)
Length of Visible Light 12h 21m
Length of Day
11h 25m
Waning Gibbous, 51% of the Moon is Illuminated
Oct 8
Waning Gibbous
Oct 8
Last Quarter
Oct 15
New
Oct 22
First Quarter
Oct 30
Full

Hourly Weather History & Observations

Time (CST) Temp. Dew Point Humidity Pressure Visibility Wind Dir Wind Speed Gust Speed Precip Events Conditions
12:00 AM 50.0 °F 42.8 °F 76% 30.18 in - SE 4.5 mph - N/A   Clear
12:30 AM 48.2 °F 41.0 °F 76% 30.18 in - SE 4.5 mph - N/A   Clear
1:00 AM 48.2 °F 42.8 °F 82% 30.18 in - ESE 4.5 mph - N/A   Clear
1:30 AM 51.8 °F 42.8 °F 71% 30.18 in - SE 6.7 mph - N/A   Clear
2:00 AM 51.8 °F 42.8 °F 71% 30.15 in - SE 6.7 mph - N/A   Clear
2:30 AM 51.8 °F 42.8 °F 71% 30.15 in - SE 8.9 mph - N/A   Clear
3:00 AM 51.8 °F 42.8 °F 71% 30.15 in - SE 8.9 mph - N/A   Clear
3:30 AM 51.8 °F 42.8 °F 71% 30.15 in - SE 8.9 mph - N/A   Clear
4:00 AM 51.8 °F 42.8 °F 71% 30.15 in - SE 6.7 mph - N/A   Clear
4:30 AM 51.8 °F 42.8 °F 71% 30.15 in - SE 8.9 mph - N/A   Clear
5:00 AM 51.8 °F 41.0 °F 67% 30.15 in - SE 6.7 mph - N/A   Clear
5:30 AM 50.0 °F 41.0 °F 71% 30.15 in - SE 8.9 mph - N/A   Clear
6:00 AM 50.0 °F 41.0 °F 71% 30.15 in - SE 8.9 mph - N/A   Clear
6:30 AM 50.0 °F 41.0 °F 71% 30.15 in - ESE 8.9 mph - N/A   Clear
7:00 AM 53.6 °F 41.0 °F 62% 30.15 in - SE 8.9 mph - N/A   Clear
7:30 AM 55.4 °F 42.8 °F 63% 30.15 in - SE 4.5 mph - N/A   Clear
8:00 AM 59.0 °F 42.8 °F 55% 30.15 in - SE 4.5 mph - N/A   Clear
8:30 AM 62.6 °F 42.8 °F 48% 30.15 in - SE 4.5 mph - N/A   Clear
9:00 AM 66.2 °F 41.0 °F 40% 30.12 in - SSE 4.5 mph - N/A   Clear
9:30 AM 68.0 °F 39.2 °F 35% 30.12 in - South 6.7 mph - N/A   Clear
10:00 AM 69.8 °F 41.0 °F 35% 30.12 in - SSW 8.9 mph - N/A   Clear
10:30 AM 71.6 °F 41.0 °F 33% 30.12 in - SW 11.2 mph - N/A   Clear
11:00 AM 73.4 °F 42.8 °F 33% 30.12 in - SW 13.4 mph - N/A   Clear
11:30 AM 73.4 °F 44.6 °F 36% 30.09 in - SW 13.4 mph - N/A   Clear
12:00 PM 75.2 °F 42.8 °F 31% 30.09 in - WSW 15.7 mph - N/A   Clear
12:30 PM 75.2 °F 39.2 °F 27% 30.06 in - SW 15.7 mph - N/A   Clear
1:00 PM 75.2 °F 39.2 °F 27% 30.06 in - SW 15.7 mph - N/A   Clear
1:30 PM 75.2 °F 35.6 °F 24% 30.06 in - SW 15.7 mph - N/A   Clear
2:00 PM 75.2 °F 37.4 °F 25% 30.06 in - SW 13.4 mph - N/A   Clear
2:30 PM 75.2 °F 37.4 °F 25% 30.04 in - SW 15.7 mph - N/A   Clear
3:00 PM 75.2 °F 37.4 °F 25% 30.04 in - WSW 15.7 mph - N/A   Clear
3:30 PM 73.4 °F 39.2 °F 29% 30.04 in - WSW 11.2 mph - N/A   Clear
4:00 PM 71.6 °F 41.0 °F 33% 30.04 in - WSW 11.2 mph - N/A   Clear
4:30 PM 69.8 °F 41.0 °F 35% 30.04 in - WSW 8.9 mph - N/A   Clear
5:00 PM 66.2 °F 42.8 °F 43% 30.01 in - WSW 6.7 mph - N/A   Clear
5:30 PM 62.6 °F 42.8 °F 48% 30.04 in - SW 4.5 mph - N/A   Clear
6:00 PM 60.8 °F 44.6 °F 55% 30.04 in - SW 4.5 mph - N/A   Clear
6:30 PM 62.6 °F 46.4 °F 55% 30.04 in - South 4.5 mph - N/A   Clear
7:00 PM 60.8 °F 44.6 °F 55% 30.04 in - South 4.5 mph - N/A   Clear
7:30 PM 59.0 °F 46.4 °F 63% 30.04 in - South 4.5 mph - N/A   Clear
8:00 PM 59.0 °F 44.6 °F 59% 30.04 in - SSE 4.5 mph - N/A   Clear
8:30 PM 59.0 °F 44.6 °F 59% 30.06 in - South 4.5 mph - N/A   Clear
9:00 PM 57.2 °F 44.6 °F 63% 30.06 in - South 4.5 mph - N/A   Clear
9:30 PM 57.2 °F 44.6 °F 63% 30.06 in - South 4.5 mph - N/A   Clear
10:00 PM 57.2 °F 44.6 °F 63% 30.06 in - SSE 6.7 mph - N/A   Clear
10:30 PM 57.2 °F 44.6 °F 63% 30.06 in - South 6.7 mph - N/A   Clear
11:00 PM 55.4 °F 46.4 °F 72% 30.04 in - SSE 6.7 mph - N/A   Clear
11:30 PM 57.2 °F 46.4 °F 67% 30.04 in - SSE 4.5 mph - N/A   Clear